Commit Graph

219 Commits

Author SHA1 Message Date
Marcus Scholz 87868f079c Escaped sensor value. 2024-02-16 00:10:11 +01:00
Marcus Scholz c0755f5add Add NINA logo. 2024-02-16 00:09:52 +01:00
Marcus Scholz acb1c63483 Updated HA. 2024-02-16 00:08:26 +01:00
Marcus Scholz 565b1b1b81 Added humidifier set humid automation. Removed states.state occurances to the less error-prone alternative. 2024-01-21 00:15:44 +01:00
Marcus Scholz 392e8508d3 Removed and ignored pycache. 2024-01-20 00:12:05 +01:00
Marcus Scholz 6985991d3a 1st working esp32-cam implementation. 2024-01-20 00:04:45 +01:00
Marcus Scholz 0162c1074f Updated HA. 2024-01-20 00:03:53 +01:00
Marcus Scholz 8a5ba47dfa Changes to serverroom sensor. 2024-01-20 00:03:43 +01:00
Marcus Scholz db6a6e9e30 Let's Encrypt automation. 2024-01-17 11:54:42 +01:00
Marcus Scholz 8cad164008 IKEA blueprint, replaced bathroom sensor with ESPHome. 2024-01-17 11:50:02 +01:00
Marcus Scholz d8cb73ebf0 Added IKEA Somrig for sleeping room. 2024-01-17 11:46:54 +01:00
Marcus Scholz 0ac87ad81c Updated HA. 2024-01-17 11:45:48 +01:00
Marcus Scholz 395bf7bb9c Cleaned up duplicate pin usage. 2023-12-25 16:45:19 +01:00
Marcus Scholz c0ebd9188d Entity name changes (and typo) because of update. 2023-12-25 00:51:42 +01:00
Marcus Scholz f36ea1b591 Added ics_calender custom component. 2023-12-14 22:15:21 +01:00
Marcus Scholz ee90402c8b WIP junk for lights management using zigbee remote. 2023-12-14 18:41:43 +01:00
Marcus Scholz 479a1cb8e1 Updated HA. 2023-12-14 14:36:54 +01:00
Marcus Scholz 2cf58f3f34 Added IKEA Zigbee button blueprint/automation, changed automations for xmas. 2023-12-14 14:36:09 +01:00
Marcus Scholz 0dff2d90ff Fixed Raspiaudio Muse luxe speaker due to ESPHome breaking change. 2023-12-14 14:34:30 +01:00
Marcus Scholz 92f95f7bae Updated phone call notification. 2023-11-14 11:34:11 +01:00
Marcus Scholz d5be7fea6b Adopted 2. Awtrix Light (Desk). 2023-11-14 11:14:27 +01:00
Marcus Scholz 8a446a727b Updated HA. 2023-11-14 11:13:05 +01:00
Marcus Scholz 2d3c9cf674 Add RD6018 Lab PSU via ESPhome WiFi. 2023-11-06 23:22:06 +01:00
Marcus Scholz ce9ad46e5b Update HA. 2023-11-06 23:21:29 +01:00
Marcus Scholz 6482453a1d Make pixelclock power-on independant of alarm going off. 2023-11-04 00:58:43 +01:00
Marcus Scholz 5f1f08b79e Fat fingers. 2023-11-02 21:53:16 +01:00
Marcus Scholz 48338c9233 Adopted Awtrix Pixelclock to automations + clock effects. 2023-11-02 21:47:33 +01:00
Marcus Scholz 671c9d6b77 Made green blinking less annoying. 2023-11-02 21:46:20 +01:00
Marcus Scholz 94f390ddf7 Updated HA. 2023-11-02 21:35:06 +01:00
Marcus Scholz 429dce72fe Fixed temperature offset with filter. Native offset not reliable. 2023-11-02 21:34:12 +01:00
Marcus Scholz 36a482de26 Updated HA. 2023-10-17 13:42:53 +02:00
Marcus Scholz 9e5a74a999 Cleaned up stale entities and fixed working ones. 2023-10-17 13:42:15 +02:00
Marcus Scholz 9ba761dcd3 Merged bathroom sensors into one device. 2023-08-19 20:18:04 +02:00
Marcus Scholz b414af5686 Updated HA. 2023-08-19 20:17:44 +02:00
Marcus Scholz eef9f31a94 Adopted new MQTT naming conventions. 2023-08-04 14:47:48 +02:00
Marcus Scholz a6b8e2d9e2 Updated HA 2023-08-04 14:47:21 +02:00
Marcus Scholz 663f5d5daf Changed default moodlight animation. 2023-08-04 14:47:06 +02:00
Marcus Scholz fb4e6a9f41 Enabled snmp traffic recording. 2023-07-01 19:37:26 +02:00
Marcus Scholz cfcbdeea9d Added Solar enery power meters. 2023-07-01 19:37:00 +02:00
Marcus Scholz 6fdacdc6e9 Switched SNMP traffic sensors to 64bit counters and into modern confg format. 2023-07-01 19:36:31 +02:00
Marcus Scholz 8b43bf239b Oops. Rounded the wrong sensors. 2023-06-25 23:41:02 +02:00
Marcus Scholz 1ade598c97 Round power meters to 1 digit after the dot. 2023-06-25 23:21:11 +02:00
Marcus Scholz 84bea6cc2b Flush to DB less often. Fix comment. 2023-06-25 23:04:30 +02:00
Marcus Scholz 4d2c5b0cba Completely new Energy monitoring, with cumulative import, export and consumption. 2023-06-25 22:41:46 +02:00
Marcus Scholz 0191bc13b7 Added energy returned and new moodlight preset. 2023-06-24 22:08:39 +02:00
Marcus Scholz 6e48e18384 Fixed 'Leckstrom' template sensor to not go wild because of solar power. 2023-06-24 11:37:05 +02:00
Marcus Scholz 55e1a02544 Updated HA. 2023-06-24 11:36:32 +02:00
Marcus Scholz a433286324 Fixed substration. 2023-06-09 21:57:23 +02:00
Marcus Scholz 0d00747fe4 New automation that taunts to open the windows when temperatur is falling. Plus presence condition. 2023-06-09 18:27:01 +02:00
Marcus Scholz d17935a803 Added command_line sensors. 2023-06-09 12:15:21 +02:00